Retour au catalogue

TABLETSAT AURORA

ActifSciencePO
NORAD 40017·PAYLOAD·🇷🇺 Russia

Lancé Jun 19, 2014 depuis Dombarovsky

Loading…

Prochains Passages (prochaines 24 heures)

TLE

FraisSource: Space-Track

Époque: Sep 14, 2026, 12:52 UTC

1 40017U 14033H   26257.53680237  .00005712  00000-0  27942-3 0  9991
2 40017  98.0187 337.0117 0009767 268.6431  91.3682 15.18611692668760

Suivez TABLETSAT AURORA en temps réel avec AllMySat

Download on the App Store